Capitol Logistics 796


SBGR
Guarulhos International Airport
Sao Paulo, BR
KMIA
Miami International Airport
Miami, US

Activity Log

Date Flight Route Aircraft Duration
09/29/2019 CPX796 UKBE1C UKBEV ASTOB UM417 OBGAT UZ21 VUMPI UL795 URSUS FLIPR6 B744 8h 38m

Route Details

Aircraft Information
Primary: Boeing 747-400BCF
Backup: Boeing 777-200LRF
Route Data
Distance: 3554nm
Sched. Duration: 8h 44m
Avg. Duration: 8h 38m (-7m)
Times Flown: 1
Recm'd Route: UKBE1C UKBEV ASTOB UM417 OBGAT UZ21 VUMPI UL795 URSUS FLIPR6
Planned Altitude: 34,000ft
Origin Wx: SBGR 311300Z 07004KT 9999 BKN010 21/19 Q1019
Dest. Wx: KMIA 311253Z 21006KT 10SM FEW025 FEW045 BKN250 26/21 A2997 RMK AO2 SLP149 T02560211
Notes:

Financial History
Total Freight: 206,843lbs
Average Load: 206,843lbs/flt
Fuel Used: 66,000lbs
Avg. Fuel Used: 66,000lbs/flt
Fuel Expense: $66,000
Avg. Fuel Expense: $66,000
Avg. Fuel Cost: $1.00/lbs
Total Gross Income: $535,723
Pilot Pay: $149
Total Expenses: $57,910
Total Revenue: $409,577
Average Revenue: $535,723.38